Weather History for KORH - January, 2013

Change the Weather History Date:

Sunday, January 6, 2013

  Actual Average Record
Temperature  
Mean Temperature 31 °F 24 °F  
Max Temperature 38 °F 31 °F 66 °F (2007)
Min Temperature 23 °F 17 °F -12 °F (1896)
Degree Days  
Heating Degree Days 34 41  
Month to date heating degree days 248 242  
Since 1 July heating degree days 2463 2746  
Cooling Degree Days 0 0  
Month to date cooling degree days 0 0  
Year to date cooling degree days 0 0  
Moisture  
Dew Point 22 °F    
Average Humidity 76    
Maximum Humidity 92    
Minimum Humidity 59    
Precipitation  
Precipitation 0.01 in 0.11 in 2.08 in (1962)
Month to date precipitation 0.01 0.67  
Year to date precipitation 0.01 0.67  
Sea Level Pressure  
Sea Level Pressure 30.03 in    
Wind  
Wind Speed 9 mph (SW)    
Max Wind Speed 21 mph    
Max Gust Speed 28 mph    
Visibility 8 miles    
Events Snow    
T = Trace of Precipitation, MM = Missing Value Source: NWS Daily Summary

Daily Weather History Graph

Daily Weather History Graph

Search for Another Location

Airport or City:

Trip Planner

Search our weather history database for the weather conditions in past years. The results will help you decide how hot, cold, wet, or windy it might be!

Date:

Astronomy

Jan. 06, 2013 Rise Set
Actual Time 7:16 AM EST 4:30 PM EST
Civil Twilight 6:44 AM EST 5:02 PM EST
Nautical Twilight 6:09 AM EST 5:37 PM EST
Astronomical Twilight 5:35 AM EST 6:11 PM EST
Moon 1:24 AM EST (1/6) 11:58 AM EST (1/6)
Length of Visible Light 10h 17m
Length of Day
9h 14m
Waning Crescent, 33% of the Moon is Illuminated
Jan 6
Waning Crescent
Jan 11
New
Jan 18
First Quarter
Jan 26
Full
Feb 3
Last Quarter

Hourly Weather History & Observations

Time (EST) Temp. Windchill Dew Point Humidity Pressure Visibility Wind Dir Wind Speed Gust Speed Precip Events Conditions
12:54 AM 25.0 °F - 16.0 °F 69% 30.17 in 10.0 mi Calm Calm - N/A   Clear
1:54 AM 25.0 °F 19.3 °F 15.1 °F 66% 30.22 in 10.0 mi WSW 4.6 mph - N/A   Mostly Cloudy
2:54 AM 26.1 °F 21.9 °F 15.1 °F 63% 30.17 in 10.0 mi SW 3.5 mph - N/A   Overcast
3:54 AM 26.1 °F 18.4 °F 18.0 °F 71% 30.14 in 3.0 mi SW 6.9 mph - 0.00 in Snow Light Snow
4:12 AM 26.1 °F 18.4 °F 19.0 °F 75% 30.09 in 2.5 mi SW 6.9 mph - 0.00 in Snow Light Snow
4:29 AM 25.0 °F 19.3 °F 19.9 °F 81% 30.07 in 1.5 mi SW 4.6 mph - 0.00 in Snow Light Snow
4:38 AM 25.0 °F 18.1 °F 21.0 °F 85% 30.06 in 2.5 mi SW 5.8 mph - 0.01 in Snow Light Snow
4:47 AM 25.0 °F 17.1 °F 21.9 °F 88% 30.06 in 3.0 mi SW 6.9 mph - 0.01 in Snow Light Snow
4:54 AM 25.0 °F 16.3 °F 21.9 °F 88% 30.11 in 2.5 mi SW 8.1 mph - 0.01 in Snow Light Snow
5:16 AM 25.0 °F 16.3 °F 23.0 °F 92% 30.05 in 2.0 mi SSW 8.1 mph - 0.00 in Snow Light Snow
5:26 AM 25.0 °F 16.3 °F 23.0 °F 92% 30.05 in 6.0 mi SSW 8.1 mph - 0.00 in Snow Light Snow
5:54 AM 26.1 °F 16.8 °F 23.0 °F 88% 30.08 in 10.0 mi SW 9.2 mph - 0.00 in   Overcast
6:18 AM 26.1 °F 16.8 °F 24.1 °F 92% 30.03 in 9.0 mi SW 9.2 mph - 0.00 in Snow Light Snow
6:54 AM 27.0 °F 17.3 °F 24.1 °F 89% 30.07 in 10.0 mi SW 10.4 mph - 0.00 in   Overcast
7:54 AM 26.1 °F 14.0 °F 23.0 °F 88% 30.05 in 10.0 mi SW 15.0 mph - N/A   Partly Cloudy
8:54 AM 28.9 °F 17.7 °F 24.1 °F 82% 30.05 in 10.0 mi WSW 15.0 mph - N/A   Clear
9:54 AM 30.9 °F 18.7 °F 23.0 °F 72% 30.04 in 9.0 mi WSW 19.6 mph 26.5 mph N/A   Clear
10:54 AM 34.0 °F 23.8 °F 24.1 °F 67% 30.02 in 10.0 mi SW 16.1 mph - N/A   Clear
11:54 AM 36.0 °F 28.0 °F 24.1 °F 62% 29.98 in 10.0 mi WSW 11.5 mph - N/A   Clear
12:54 PM 37.4 °F 30.8 °F 24.8 °F 60% 29.92 in 10.0 mi WSW 9.2 mph - N/A   Scattered Clouds
1:54 PM 37.9 °F 30.5 °F 25.0 °F 60% 29.95 in 10.0 mi WSW 11.5 mph - N/A   Scattered Clouds
2:54 PM 37.9 °F 31.5 °F 25.0 °F 60% 29.96 in 10.0 mi West 9.2 mph - N/A   Mostly Cloudy
3:54 PM 37.0 °F 30.4 °F 25.0 °F 62% 29.95 in 10.0 mi West 9.2 mph - N/A   Clear
4:54 PM 35.1 °F 32.2 °F 24.1 °F 64% 29.96 in 10.0 mi WSW 3.5 mph - N/A   Scattered Clouds
5:54 PM 32.0 °F 27.5 °F 24.1 °F 73% 29.97 in 10.0 mi SW 4.6 mph - N/A   Mostly Cloudy
6:54 PM 30.9 °F 24.3 °F 24.1 °F 76% 29.96 in 10.0 mi SW 6.9 mph - N/A   Overcast
7:54 PM 33.1 °F 25.5 °F 24.1 °F 70% 29.97 in 10.0 mi SW 9.2 mph - N/A   Mostly Cloudy
8:54 PM 32.0 °F 25.6 °F 24.1 °F 73% 29.96 in 10.0 mi West 6.9 mph - N/A   Partly Cloudy
9:54 PM 32.0 °F 24.8 °F 23.0 °F 69% 29.93 in 10.0 mi WSW 8.1 mph - N/A   Scattered Clouds
10:54 PM 30.2 °F 22.6 °F 23.0 °F 75% 29.93 in 10.0 mi West 8.1 mph - N/A   Clear
11:54 PM 30.9 °F 21.7 °F 23.0 °F 72% 29.97 in 10.0 mi West 11.5 mph - N/A   Clear